FW2825 Weather Reports


Display with metric or nautical units.
time (UTC)temp
F
wind
direction
speed
MPH
gust
MPH
rain 1hr
in
rain 24hr
in
rain mn
in
humidity
%
barometer
mb
20260506174619 62 360 0.0 0.0 0.06 0.06 0.06 91 1006.6
20260506173125 64 360 0.0 0.0 0.04 0.04 0.04 89 1006.8
20260506171614 65 360 0.0 0.0 0.01 0.01 0.01 86 1007.1
20260506170114 66 360 0.0 0.0 0.00 0.00 0.00 82 1007.2
20260506164620 67 360 0.0 0.0 0.00 0.00 0.00 79 1007.2
20260506163108 67 360 0.0 0.0 0.00 0.00 0.00 77 1007.2
20260506161612 67 360 0.0 6.0 0.00 0.00 0.00 76 1007.4
20260506160116 66 360 0.0 0.0 0.00 0.00 0.00 77 1007.7
20260506154604 65 360 0.0 0.0 0.00 0.00 0.00 80 1007.9
20260506153108 65 360 0.0 0.0 0.00 0.00 0.00 79 1008.1
20260506151616 65 360 0.0 0.0 0.00 0.00 0.00 79 1008.4
20260506150120 64 360 0.0 0.0 0.00 0.00 0.00 80 1008.5
20260506144609 64 360 0.0 0.0 0.00 0.00 0.00 80 1008.4
20260506143112 64 360 0.0 0.0 0.00 0.00 0.00 81 1008.7
20260506141504 63 360 0.0 0.0 0.00 0.00 0.00 81 1008.5
20260506140105 63 360 0.0 3.0 0.00 0.00 0.00 81 1008.7
20260506134620 63 360 0.0 0.0 0.00 0.00 0.00 82 1008.4
20260506133117 62 360 0.0 0.0 0.00 0.00 0.00 83 1008.4
20260506131613 61 360 0.0 0.0 0.00 0.00 0.00 84 1008.5
20260506130112 61 360 0.0 0.0 0.00 0.00 0.00 85 1008.7
20260506124618 60 360 0.0 0.0 0.00 0.00 0.00 86 1008.8
20260506123120 60 360 0.0 0.0 0.00 0.00 0.00 86 1009.0
20260506121609 59 360 0.0 0.0 0.00 0.00 0.00 88 1009.1
20260506120114 58 360 0.0 0.0 0.00 0.00 0.00 88 1009.0
20260506114506 58 360 0.0 0.0 0.00 0.00 0.00 89 1008.9
20260506113105 57 360 0.0 0.0 0.00 0.00 0.00 90 1009.1
20260506111627 57 360 0.0 0.0 0.00 0.00 0.00 91 1009.0
20260506110123 56 360 0.0 0.0 0.00 0.00 0.00 93 1009.2
20260506104607 55 360 0.0 0.0 0.00 0.00 0.00 93 1009.4
20260506103113 54 360 0.0 0.0 0.00 0.00 0.00 93 1009.3
20260506101506 54 360 0.0 0.0 0.00 0.00 0.00 92 1008.9
20260506100106 54 360 0.0 0.0 0.00 0.00 0.00 92 1009.0
20260506094611 54 360 0.0 0.0 0.00 0.00 0.00 90 1009.0
20260506093117 54 360 0.0 0.0 0.00 0.00 0.00 90 1009.1
20260506091621 55 360 0.0 0.0 0.00 0.00 0.00 90 1009.0
20260506090107 55 360 0.0 0.0 0.00 0.00 0.00 90 1009.0
20260506084613 55 360 0.0 0.0 0.00 0.00 0.00 90 1009.0
20260506083005 55 360 0.0 0.0 0.00 0.00 0.00 90 1009.2
20260506081606 54 360 0.0 0.0 0.00 0.00 0.00 90 1009.1
20260506080117 54 360 0.0 0.0 0.00 0.00 0.00 90 1009.1
20260506073004 54 360 0.0 0.0 0.00 0.00 0.00 87 1008.9
20260506071606 55 360 0.0 0.0 0.00 0.00 0.00 87 1009.1
20260506070127 55 360 0.0 0.0 0.00 0.00 0.00 85 1009.0
20260506061611 58 360 0.0 0.0 0.00 0.00 0.00 81 1008.7
20260506060120 58 360 0.0 0.0 0.00 0.00 0.00 80 1008.7
20260506050117 60 360 0.0 0.0 0.00 0.00 0.00 77 1009.0
20260506044612 60 360 0.0 0.0 0.00 0.00 0.00 76 1009.1
20260506043116 60 360 0.0 0.0 0.00 0.00 0.00 75 1009.0
20260506041623 61 360 0.0 0.0 0.00 0.00 0.00 74 1009.1
20260506040107 61 360 0.0 0.0 0.00 0.00 0.00 73 1009.1
20260506034616 61 360 0.0 0.0 0.00 0.00 0.00 72 1009.1
20260506033014 62 360 0.0 0.0 0.00 0.00 0.00 71 1009.1
20260506031610 62 360 0.0 0.0 0.00 0.00 0.00 70 1009.1
20260506030113 63 360 0.0 0.0 0.00 0.00 0.00 69 1009.1
20260506024622 63 360 0.0 1.0 0.00 0.00 0.00 68 1009.2
20260506023107 64 360 0.0 0.0 0.00 0.00 0.00 67 1009.1
20260506021612 64 360 0.0 0.0 0.00 0.00 0.00 67 1008.9
20260506020116 65 360 0.0 0.0 0.00 0.00 0.00 67 1008.8
20260506014614 65 360 0.0 0.0 0.00 0.00 0.00 66 1008.7
20260506013113 65 360 0.0 0.0 0.00 0.00 0.00 65 1008.6
20260506011636 66 360 0.0 0.0 0.00 0.00 0.00 64 1008.5
20260506010104 67 360 0.0 0.0 0.00 0.00 0.00 62 1008.3
20260506004613 68 360 0.0 0.0 0.00 0.00 0.00 61 1008.2
20260506003116 69 360 0.0 0.0 0.00 0.00 0.00 60 1007.9
20260506001605 69 360 0.0 0.0 0.00 0.00 0.00 59 1007.7
20260506000123 70 360 1.0 10.0 0.00 0.00 0.00 58 1007.3
20260505234617 71 360 0.0 1.0 0.00 0.00 0.00 57 1006.9
20260505233120 71 360 0.0 4.0 0.00 0.00 0.00 55 1006.6
20260505231615 72 360 0.0 2.0 0.00 0.00 0.00 54 1006.4
20260505230116 73 360 0.0 1.0 0.00 0.00 0.00 53 1006.1
20260505224604 74 360 0.0 6.0 0.00 0.00 0.00 52 1006.1
20260505223107 75 360 0.0 13.0 0.00 0.00 0.00 50 1005.9
20260505221618 76 360 0.0 14.0 0.00 0.00 0.00 48 1005.7
20260505220117 77 360 0.0 11.0 0.00 0.00 0.00 47 1005.5
20260505214605 78 360 1.0 12.0 0.00 0.00 0.00 45 1005.4
20260505213111 78 360 0.0 15.0 0.00 0.00 0.00 45 1005.0
20260505211617 79 360 0.0 1.0 0.00 0.00 0.00 46 1005.0
20260505210006 79 360 0.0 15.0 0.00 0.00 0.00 45 1005.0
20260505204607 79 18 0.0 12.0 0.00 0.00 0.00 44 1004.9
20260505203122 79 360 2.0 13.0 0.00 0.00 0.00 44 1005.0
20260505201506 80 360 0.0 9.0 0.00 0.00 0.00 44 1005.0
20260505200107 80 360 0.0 8.0 0.00 0.00 0.00 44 1005.1
20260505194620 81 360 0.0 13.0 0.00 0.00 0.00 41 1005.0
20260505193119 82 360 1.0 13.0 0.00 0.00 0.00 39 1005.1
20260505191507 83 360 0.0 6.0 0.00 0.00 0.00 33 1005.2
20260505190107 83 360 2.0 16.0 0.00 0.00 0.00 33 1005.2
20260505184613 83 360 0.0 9.0 0.00 0.00 0.00 34 1005.6
20260505183119 80 360 1.0 10.0 0.00 0.00 0.00 36 1005.6
20260505181603 80 360 0.0 8.0 0.00 0.00 0.00 44 1005.9
20260505180112 80 360 0.0 8.0 0.00 0.00 0.00 45 1005.9